[[{"header":{"parameterUnit":"m.s-1","parameterCategory":2,"la1":30.2992,"la2":30.254,"lo1":-89.0895,"lo2":-89.0443,"dy":0.0025,"dx":0.0025,"nx":19,"ny":19,"refTime":"2026-05-22T21:00:00:Z","depth":"0","parameterNumber":2,"parameterNumberName":"U-component_of_CURRENTS"},"data":[0,0,0,0.1505,0.1506,0.1519,0.1519,0.1562,0.1563,0,0,0,0,0,0,0,0,0,0,0,0.1497,0.1497,0.1505,0.1506,0.1519,0.1519,0.1562,0.1563,0,0,0,0,0,0,0,0,0,0,0,0.1497,0.1497,0.1497,0.1506,0.1519,0.1519,0.1562,0.1542,0,0,0,0,0,0,0,0,0,0,0.1525,0.1512,0.1497,0.1497,0.1506,0.1519,0.1519,0.1541,0.1544,0.1568,0,0.1576,0,0.1579,0.1567,0.1568,0,0,0,0.1493,0.151,0.1523,0.1497,0.1506,0.1519,0.1509,0.1542,0.1545,0.1571,0.1577,0.1578,0.158,0.1568,0.1568,0.1854,0.1856,0,0,0.1492,0.1489,0.1521,0.1525,0.1519,0.1509,0.151,0.1543,0.1546,0.1577,0.1579,0.1581,0.1568,0.1569,0.1851,0.1854,0,0,0,0.1499,0.1489,0.15,0.1524,0.1529,0.151,0.1511,0.1544,0.1551,0.158,0.1581,0.1569,0.1569,0.1848,0.1852,0.2026,0,0,0,0.1498,0.1493,0.15,0.1496,0.1528,0.1532,0.151,0.1548,0.1552,0.1581,0.1569,0.157,0.1845,0.185,0.2015,0.2004,0,0,0,0.1494,0.1493,0.1499,0.1496,0.1509,0.1531,0.1539,0.1548,0.1554,0.1568,0.157,0.1843,0.1849,0.2005,0.1991,0.2047,0,0,0,0.1483,0.1501,0.1499,0.1518,0.1509,0.1562,0.1538,0.1544,0.1553,0.1569,0.1846,0.1852,0.2002,0.1983,0.204,0.2003,0.2033,0,0,0.15,0.1502,0.1514,0.1514,0.1576,0.1558,0.1703,0.1681,0.1677,0.1826,0.1833,0.2018,0.199,0.2045,0.2361,0.238,0,0,0,0.1516,0.1539,0.1546,0.1588,0.1615,0.174,0.1741,0.1817,0.1971,0.1718,0.2096,0.2072,0.2101,0.2068,0.2086,0.2145,0.1881,0.188,0.1879,0.1548,0.1577,0.1658,0.1727,0.1771,0.1881,0.1997,0.2134,0.2097,0.2239,0.2276,0.251,0.2488,0.2498,0.2566,0.2393,0.2394,0.2394,0.2395,0.1671,0.1747,0.1812,0.1901,0.2017,0.2139,0.2339,0.2378,0.2584,0.2538,0.256,0.233,0.2526,0.2592,0.2407,0.2405,0.2403,0.2402,0.2401,0.1764,0.1812,0.188,0.2022,0.2174,0.2286,0.2448,0.2572,0.2696,0.2762,0.2664,0.266,0.2649,0.2773,0.2774,0.2774,0.2774,0.2774,0.2775,0.1833,0.1912,0.1978,0.2109,0.2165,0.228,0.2472,0.258,0.2732,0.2801,0.2801,0.2772,0.2622,0.2529,0.278,0.2779,0.2778,0.2778,0.2777,0.1918,0.1898,0.1993,0.2043,0.2152,0.219,0.2375,0.2558,0.2698,0.2768,0.2938,0.2829,0.2734,0.2718,0.2629,0.2889,0.2889,0.2889,0.2889,0.1912,0.1931,0.1979,0.2016,0.2076,0.2146,0.2221,0.2443,0.2782,0.2963,0.3026,0.2988,0.2981,0.2897,0.2878,0.279,0.3086,0.3086,0.3086,0.1929,0.194,0.1948,0.1975,0.2023,0.2067,0.2081,0.2264,0.2826,0.3103,0.3133,0.3125,0.3076,0.3058,0.292,0.2889,0.274,0,0]},{"header":{"parameterUnit":"m.s-1","parameterCategory":2,"la1":30.2992,"la2":30.254,"lo1":-89.0895,"lo2":-89.0443,"dy":0.0025,"dx":0.0025,"nx":19,"ny":19,"refTime":"2026-05-22T21:00:00:Z","depth":"0","parameterNumber":3,"parameterNumberName":"V-component_of_CURRENTS"},"data":[0,0,0,-0.0245,-0.0246,-0.0327,-0.0327,-0.0277,-0.0276,0,0,0,0,0,0,0,0,0,0,0,-0.0218,-0.0218,-0.0245,-0.0247,-0.0327,-0.0327,-0.0277,-0.0276,0,0,0,0,0,0,0,0,0,0,0,-0.0217,-0.0218,-0.0219,-0.0247,-0.0327,-0.0328,-0.0277,-0.0255,0,0,0,0,0,0,0,0,0,0,-0.0196,-0.019,-0.0218,-0.0219,-0.0247,-0.0327,-0.0328,-0.0256,-0.0256,-0.0196,0,-0.0213,0,-0.0238,-0.0269,-0.0268,0,0,0,-0.0249,-0.019,-0.0213,-0.0219,-0.0248,-0.0327,-0.0291,-0.0257,-0.0258,-0.0196,-0.0213,-0.0212,-0.0237,-0.0268,-0.0268,0.0115,0.0118,0,0,-0.0244,-0.0226,-0.0213,-0.0213,-0.0272,-0.0289,-0.0294,-0.0259,-0.0255,-0.0213,-0.0212,-0.0236,-0.0267,-0.0267,0.0112,0.0116,0,0,0,-0.023,-0.0223,-0.025,-0.0214,-0.0238,-0.0291,-0.0297,-0.0258,-0.0268,-0.0212,-0.0235,-0.0267,-0.0265,0.0108,0.0113,0.0364,0,0,0,-0.0228,-0.0214,-0.0248,-0.0237,-0.024,-0.0269,-0.0295,-0.0271,-0.0268,-0.0236,-0.0267,-0.0264,0.0104,0.0111,0.0349,0.0425,0,0,0,-0.0214,-0.0213,-0.0224,-0.0236,-0.0271,-0.0271,-0.0281,-0.0272,-0.0281,-0.0268,-0.0264,0.0102,0.011,0.0336,0.0404,0.0488,0,0,0,-0.0188,-0.0189,-0.0224,-0.0221,-0.027,-0.0219,-0.0282,-0.0269,-0.0254,-0.0266,0.0105,0.0113,0.0332,0.0392,0.0476,0.0457,0.0509,0,0,-0.017,-0.0187,-0.0181,-0.0214,-0.0123,-0.0208,-0.0001,-0.0038,-0.0086,0.0094,0.0101,0.0354,0.0403,0.0485,0.0924,0.0961,0,0,0,-0.0162,-0.0126,-0.0122,-0.0073,-0.0069,0.0104,0.0068,0.0141,0.0304,-0.004,0.0449,0.0473,0.0515,0.0484,0.0517,0.0315,0.015,0.0149,0.0149,-0.0038,-0.0023,0.0093,0.0165,0.022,0.035,0.0494,0.0628,0.0514,0.0674,0.0749,0.1081,0.1062,0.1083,0.0883,0.0849,0.085,0.0851,0.0852,0.0165,0.0307,0.0357,0.0479,0.0637,0.0816,0.1027,0.1031,0.1248,0.1121,0.1148,0.0842,0.1133,0.0905,0.0869,0.0866,0.0864,0.0862,0.0861,0.0388,0.0479,0.0527,0.074,0.0984,0.1111,0.138,0.1459,0.147,0.155,0.1392,0.1386,0.1108,0.152,0.1521,0.1522,0.1522,0.1523,0.1523,0.0639,0.0703,0.0815,0.0998,0.1104,0.1314,0.1544,0.1648,0.1702,0.1664,0.1662,0.1245,0.1281,0.1165,0.1536,0.1534,0.1532,0.1531,0.153,0.0937,0.0879,0.103,0.1111,0.1332,0.151,0.1682,0.1849,0.1919,0.1937,0.1561,0.1712,0.1597,0.1569,0.1461,0.1886,0.1886,0.1886,0.1886,0.1074,0.1084,0.118,0.1277,0.1461,0.1607,0.1831,0.197,0.1848,0.171,0.1599,0.1445,0.1439,0.1301,0.1279,0.116,0.1499,0.1498,0.1498,0.1206,0.1199,0.1264,0.1322,0.1498,0.1681,0.1864,0.2039,0.1774,0.1459,0.1339,0.1355,0.1098,0.1104,0.0851,0.0836,0.0625,0,0]}],[{"header":{"parameterUnit":"m.s-1","parameterCategory":2,"la1":30.2992,"la2":30.254,"lo1":-89.0895,"lo2":-89.0443,"dy":0.0025,"dx":0.0025,"nx":19,"ny":19,"refTime":"2026-05-22T21:00:00:Z","depth":"2","parameterNumber":2,"parameterNumberName":"U-component_of_CURRENTS"},"data":[0,0,0,0.1553,0.1554,0.1561,0.1561,0.1598,0.1599,0,0,0,0,0,0,0,0,0,0,0,0.1547,0.1547,0.1553,0.1554,0.1561,0.1561,0.1598,0.1599,0,0,0,0,0,0,0,0,0,0,0,0.1547,0.1547,0.1548,0.1554,0.1561,0.1561,0.1598,0.1582,0,0,0,0,0,0,0,0,0,0,0.157,0.1559,0.1547,0.1548,0.1554,0.1561,0.1561,0.1581,0.1583,0.1607,0,0.1616,0,0.1618,0.1603,0.1604,0,0,0,0.154,0.1557,0.157,0.1548,0.1555,0.1562,0.1554,0.1582,0.1585,0.161,0.1616,0.1617,0.1618,0.1604,0.1604,0.1884,0.1887,0,0,0.154,0.1537,0.1568,0.1572,0.1567,0.1554,0.1555,0.1583,0.1585,0.1616,0.1618,0.1619,0.1604,0.1605,0.1882,0.1885,0,0,0,0.1548,0.1537,0.1548,0.157,0.1575,0.1555,0.1555,0.1583,0.159,0.1619,0.1619,0.1605,0.1605,0.1879,0.1883,0.1976,0,0,0,0.1547,0.1543,0.1548,0.1545,0.1574,0.1574,0.1555,0.1588,0.1591,0.1619,0.1605,0.1606,0.1876,0.1881,0.1967,0.1994,0,0,0,0.1545,0.1542,0.1549,0.1545,0.1556,0.1574,0.1581,0.1588,0.1593,0.1604,0.1606,0.1874,0.188,0.196,0.1982,0.199,0,0,0,0.1534,0.1549,0.1549,0.1565,0.1556,0.16,0.158,0.1588,0.1596,0.1605,0.1876,0.1882,0.1957,0.1975,0.1984,0.1834,0.1849,0,0,0.1548,0.1551,0.1561,0.1561,0.1618,0.1597,0.1739,0.1725,0.1718,0.1859,0.1865,0.197,0.1981,0.1988,0.2189,0.2192,0,0,0,0.1562,0.1583,0.159,0.1628,0.1651,0.1781,0.178,0.1841,0.1965,0.1758,0.207,0.2076,0.2074,0.1977,0.1983,0.1912,0.1911,0.191,0.191,0.1591,0.1618,0.1692,0.176,0.1807,0.1921,0.2026,0.2147,0.2085,0.2198,0.2226,0.2399,0.2306,0.2305,0.2319,0.2319,0.232,0.232,0.232,0.1706,0.1777,0.1844,0.1928,0.2052,0.2172,0.2348,0.236,0.2502,0.2455,0.2447,0.2175,0.2315,0.233,0.2328,0.2327,0.2326,0.2325,0.2324,0.1785,0.1833,0.1896,0.2046,0.2203,0.2318,0.2447,0.2543,0.2584,0.2617,0.2421,0.2416,0.2357,0.2568,0.2568,0.2569,0.2569,0.2569,0.2569,0.1851,0.1926,0.197,0.2132,0.2178,0.2296,0.2458,0.2493,0.2515,0.2525,0.2522,0.2481,0.2473,0.2374,0.2573,0.2572,0.2572,0.2571,0.2571,0.188,0.1873,0.1942,0.1974,0.2105,0.2131,0.2295,0.2344,0.2411,0.2393,0.2464,0.2465,0.2397,0.2391,0.2293,0.2459,0.2459,0.2459,0.2459,0.1822,0.1853,0.1838,0.1856,0.1934,0.2036,0.1988,0.2025,0.2154,0.2152,0.2165,0.2082,0.2093,0.2002,0.2006,0.1897,0.196,0.1959,0.1958,0.1748,0.1762,0.169,0.175,0.1819,0.1876,0.1781,0.1666,0.1684,0.1936,0.2056,0.2429,0.2339,0.2345,0.2227,0.2224,0.2058,0,0]},{"header":{"parameterUnit":"m.s-1","parameterCategory":2,"la1":30.2992,"la2":30.254,"lo1":-89.0895,"lo2":-89.0443,"dy":0.0025,"dx":0.0025,"nx":19,"ny":19,"refTime":"2026-05-22T21:00:00:Z","depth":"2","parameterNumber":3,"parameterNumberName":"V-component_of_CURRENTS"},"data":[0,0,0,-0.0349,-0.035,-0.0419,-0.0419,-0.0401,-0.0401,0,0,0,0,0,0,0,0,0,0,0,-0.0325,-0.0325,-0.0349,-0.035,-0.0419,-0.0419,-0.0401,-0.0401,0,0,0,0,0,0,0,0,0,0,0,-0.0324,-0.0325,-0.0326,-0.0351,-0.0418,-0.0419,-0.0401,-0.0376,0,0,0,0,0,0,0,0,0,0,-0.0322,-0.031,-0.0325,-0.0326,-0.0351,-0.0418,-0.0419,-0.0375,-0.0377,-0.034,0,-0.0356,0,-0.0376,-0.0397,-0.0397,0,0,0,-0.0349,-0.0309,-0.0333,-0.0326,-0.0352,-0.0418,-0.0387,-0.0377,-0.0379,-0.0342,-0.0356,-0.0356,-0.0375,-0.0397,-0.0396,-0.0216,-0.0215,0,0,-0.0346,-0.0328,-0.0332,-0.0334,-0.0373,-0.0385,-0.039,-0.0379,-0.0377,-0.0356,-0.0356,-0.0375,-0.0396,-0.0396,-0.0218,-0.0216,0,0,0,-0.0335,-0.0326,-0.0352,-0.0334,-0.0354,-0.0387,-0.0392,-0.0377,-0.0388,-0.0356,-0.0375,-0.0396,-0.0395,-0.0219,-0.0217,-0.0117,0,0,0,-0.0333,-0.032,-0.035,-0.0339,-0.0355,-0.0379,-0.039,-0.0389,-0.0389,-0.0375,-0.0396,-0.0395,-0.0221,-0.0218,-0.0124,-0.0109,0,0,0,-0.0321,-0.0318,-0.033,-0.0338,-0.037,-0.0381,-0.0391,-0.039,-0.0399,-0.0397,-0.0395,-0.0222,-0.0219,-0.0129,-0.0117,-0.0238,0,0,0,-0.0296,-0.0295,-0.0329,-0.0324,-0.0369,-0.0348,-0.0392,-0.0384,-0.0377,-0.0396,-0.0221,-0.0217,-0.0131,-0.0122,-0.024,-0.0328,-0.0325,0,0,-0.0275,-0.0292,-0.0286,-0.0319,-0.0274,-0.0339,-0.0245,-0.0269,-0.0298,-0.0221,-0.0218,-0.0121,-0.0118,-0.0239,-0.011,-0.0115,0,0,0,-0.0267,-0.025,-0.0248,-0.0233,-0.024,-0.0184,-0.0206,-0.0198,-0.0145,-0.0278,-0.0072,-0.0073,-0.0155,-0.0208,-0.021,-0.0199,-0.02,-0.02,-0.02,-0.0174,-0.018,-0.0126,-0.011,-0.0092,-0.0058,-0.0036,-0.0011,-0.0036,0.0015,0.0046,0.0077,0.0033,0.0027,0.0104,0.0105,0.0105,0.0105,0.0106,-0.0071,-0.0037,-0.0007,0.0044,0.0091,0.0163,0.0187,0.0171,0.0167,0.0187,0.01,-0.0048,0.0029,0.0114,0.0113,0.0112,0.0111,0.011,0.0109,0.0034,0.0039,0.0088,0.0147,0.0243,0.0279,0.026,0.028,0.0235,0.021,0.0019,0.0016,0.0022,0.0135,0.0135,0.0134,0.0134,0.0134,0.0133,0.0087,0.0132,0.0117,0.0217,0.0224,0.0257,0.0274,0.0194,0.0113,0.0097,0.0094,0.0083,0.0082,0.0021,0.0128,0.0129,0.0129,0.013,0.013,0.0051,0.0056,0.0046,0.0041,0.0072,0.0121,0.0129,0.0035,-0.0061,-0.0127,-0.0028,-0.0022,-0.011,-0.0108,-0.0173,-0.0125,-0.0125,-0.0125,-0.0125,-0.0051,-0.0024,-0.0109,-0.0141,-0.0119,0.0015,0.002,0.0081,0.0012,0.0021,0.0017,0.0076,0.008,0.0006,0.0005,-0.0057,0.0022,0.0023,0.0024,-0.0227,-0.0191,-0.0287,-0.0233,-0.02,-0.0091,0.0078,0.0298,0.0239,0.0044,0.019,-0.0144,-0.0071,-0.0059,-0.0187,-0.0181,-0.0288,0,0]}],[{"header":{"parameterUnit":"m.s-1","parameterCategory":2,"la1":30.2992,"la2":30.254,"lo1":-89.0895,"lo2":-89.0443,"dy":0.0025,"dx":0.0025,"nx":19,"ny":19,"refTime":"2026-05-22T21:00:00:Z","depth":"4","parameterNumber":2,"parameterNumberName":"U-component_of_CURRENTS"},"data":[0,0,0,0.0508,0.0511,0.079,0.0792,0.1156,0.1158,0,0,0,0,0,0,0,0,0,0,0,0.0452,0.0453,0.0508,0.0511,0.079,0.0792,0.1156,0.1158,0,0,0,0,0,0,0,0,0,0,0,0.0452,0.0453,0.0454,0.0512,0.0789,0.0793,0.1155,0.0965,0,0,0,0,0,0,0,0,0,0,0.0702,0.0633,0.0452,0.0454,0.0513,0.0789,0.0793,0.0956,0.0976,0.1004,0,0.102,0,0.104,0.1175,0.1176,0,0,0,0.0601,0.0616,0.065,0.0454,0.0514,0.0788,0.069,0.0968,0.0991,0.103,0.1025,0.1038,0.1046,0.1176,0.1177,0.1404,0.1405,0,0,0.0586,0.0554,0.0634,0.0663,0.0551,0.068,0.0697,0.0983,0.1014,0.1026,0.1046,0.1052,0.1178,0.118,0.1404,0.1404,0,0,0,0.0481,0.0543,0.0575,0.0649,0.0667,0.0686,0.0706,0.1005,0.1002,0.105,0.1056,0.1179,0.1182,0.1403,0.1404,0.1447,0,0,0,0.0476,0.0474,0.0566,0.0558,0.066,0.0837,0.0721,0.0985,0.1016,0.1054,0.1179,0.1185,0.1402,0.1403,0.1444,0.1397,0,0,0,0.0446,0.0472,0.0484,0.0554,0.0625,0.0833,0.0855,0.0994,0.1014,0.1176,0.1185,0.1402,0.1403,0.1442,0.1395,0.1401,0,0,0,0.0434,0.0481,0.0484,0.0579,0.0621,0.0822,0.0854,0.1047,0.1192,0.1181,0.1402,0.1404,0.1441,0.1394,0.14,0.1148,0,0,0,0.0487,0.0488,0.0552,0.0558,0.0716,0.0792,0.0996,0.1179,0.1216,0.1322,0.1329,0.1445,0.1395,0.1401,0.1244,0,0,0,0,0.0567,0.0602,0.066,0.0753,0.0875,0.0956,0.1149,0.1211,0.1352,0.1286,0.1465,0.1431,0.1433,0.1286,0.1411,0.1411,0.1411,0.1411,0.1411,0.0617,0.0685,0.0783,0.0864,0.0972,0.1134,0.1216,0.1317,0.1422,0.1463,0.1484,0.1532,0.1383,0.1539,0.1539,0.1539,0.154,0.154,0.154,0.0672,0.0691,0.0806,0.0924,0.1001,0.1177,0.1284,0.1358,0.148,0.1521,0.1525,0.1364,0.1545,0.1544,0.1543,0.1542,0.1542,0.1542,0.1542,0.0654,0.0643,0.0765,0.0871,0.1021,0.1168,0.1245,0.1372,0.1467,0.1493,0.1379,0.1538,0.1511,0.1561,0.156,0.156,0.156,0.156,0.156,0.0519,0.0615,0.0656,0.0797,0.0894,0.1034,0.124,0.1271,0.1388,0.1348,0.1536,0.1537,0.1536,0.1511,0.1558,0.1558,0.1558,0.1559,0.1559,0.0377,0.0427,0.0463,0.0543,0.0711,0.0804,0.1047,0.1115,0.1131,0.1079,0.1254,0.1269,0.1211,0.1218,0.1179,0.1129,0.1126,0.1122,0,0.0235,0.0265,0.0293,0.0345,0.0411,0.063,0.0668,0.0773,0.0877,0.0864,0.1051,0.1244,0.1256,0.1186,0.1188,0.1137,0,0,0,0.0094,0.0133,0.0116,0.0201,0.0285,0.0427,0.0669,0.067,0.0919,0.0832,0.1044,0.1064,0.1265,0.1552,0.1498,0.1498,0.1453,0,0]},{"header":{"parameterUnit":"m.s-1","parameterCategory":2,"la1":30.2992,"la2":30.254,"lo1":-89.0895,"lo2":-89.0443,"dy":0.0025,"dx":0.0025,"nx":19,"ny":19,"refTime":"2026-05-22T21:00:00:Z","depth":"4","parameterNumber":3,"parameterNumberName":"V-component_of_CURRENTS"},"data":[0,0,0,0.0429,0.043,0.043,0.043,0.0131,0.0128,0,0,0,0,0,0,0,0,0,0,0,0.0416,0.0416,0.0428,0.043,0.043,0.043,0.0131,0.0128,0,0,0,0,0,0,0,0,0,0,0,0.0415,0.0416,0.0417,0.043,0.0431,0.043,0.0132,0.0197,0,0,0,0,0,0,0,0,0,0,0.023,0.0281,0.0416,0.0417,0.0431,0.0431,0.043,0.0203,0.0193,0.0057,0,0.0083,0,0.0113,0.0104,0.0103,0,0,0,0.0392,0.0291,0.0293,0.0417,0.0431,0.0431,0.0419,0.0199,0.0187,0.0042,0.008,0.0071,0.0108,0.0102,0.01,-0.0256,-0.0257,0,0,0.0392,0.0397,0.0303,0.0287,0.0457,0.042,0.042,0.0195,0.0184,0.0079,0.0066,0.0103,0.01,0.0097,-0.0254,-0.0256,0,0,0,0.0417,0.0397,0.041,0.0296,0.0329,0.0421,0.0421,0.0194,0.0201,0.0063,0.0099,0.0098,0.0093,-0.0253,-0.0255,-0.0299,0,0,0,0.0416,0.0415,0.0411,0.041,0.0336,0.0306,0.0425,0.0216,0.0194,0.0101,0.0098,0.009,-0.0252,-0.0254,-0.0294,-0.0238,0,0,0,0.0411,0.0414,0.0425,0.0411,0.0432,0.0312,0.0306,0.0214,0.0215,0.0103,0.0089,-0.0251,-0.0254,-0.0291,-0.0235,-0.0172,0,0,0,0.0399,0.0427,0.0425,0.0446,0.0432,0.0355,0.0308,0.0213,0.0117,0.0096,-0.0252,-0.0255,-0.0289,-0.0232,-0.0171,0.0028,0,0,0,0.0426,0.043,0.0438,0.0438,0.0362,0.0351,0.0205,0.0066,0.0017,-0.0203,-0.0209,-0.0296,-0.0234,-0.0172,-0.0157,0,0,0,0,0.044,0.0408,0.04,0.0353,0.0316,0.0225,0.0086,0.0009,-0.0169,-0.0041,-0.0346,-0.0305,-0.0263,-0.0151,-0.027,-0.0269,-0.0269,-0.0269,-0.0268,0.0385,0.0357,0.0298,0.0228,0.0181,0.0057,-0.0012,-0.0161,-0.0263,-0.0348,-0.0382,-0.0411,-0.0307,-0.0468,-0.0469,-0.0469,-0.0469,-0.0469,-0.0469,0.0291,0.0237,0.0173,0.0095,0.0018,-0.0123,-0.0218,-0.0277,-0.0407,-0.0476,-0.0435,-0.026,-0.0475,-0.0474,-0.0473,-0.0472,-0.0472,-0.0472,-0.0471,0.0157,0.0146,0.0077,0.0005,-0.0099,-0.0169,-0.0136,-0.026,-0.0392,-0.0393,-0.0244,-0.0396,-0.0338,-0.0397,-0.0396,-0.0396,-0.0396,-0.0395,-0.0395,0.0089,0.0032,0.0062,-0.0033,-0.0,0.0002,-0.0059,-0.0024,-0.0154,-0.0214,-0.0394,-0.0384,-0.0386,-0.0333,-0.0388,-0.0389,-0.039,-0.0391,-0.0391,0.0056,0.0097,0.0141,0.02,0.03,0.0286,0.0269,0.0226,0.0258,0.0223,-0.0095,-0.0112,-0.0039,-0.0048,0.0021,0.0069,0.0071,0.0074,0,0.015,0.0134,0.0324,0.0476,0.0595,0.0501,0.0617,0.0574,0.0334,0.0246,0.0234,-0.013,-0.0143,-0.0062,-0.0066,0.0014,0,0,0,0.0299,0.0297,0.0478,0.0543,0.0685,0.0661,0.061,0.0544,0.036,0.0464,0.0137,0.012,0.0065,-0.0368,-0.0292,-0.0295,-0.0202,0,0]}]]